Melton Hill Observed Data For Previous 48 Hours

Caption
Day and Hour Reservoir Elevation (behind dam)* Tailwater Elevation (below dam)* Average Hourly Discharge*
6/20/2018 2 AM EDT 794.06 740.92 0
6/20/2018 3 AM EDT 794.05 740.66 0
6/20/2018 4 AM EDT 794.08 740.48 0
6/20/2018 5 AM EDT 794.11 740.68 0
6/20/2018 6 AM EDT 794.15 740.97 0
6/20/2018 7 AM EDT 794.15 741.04 0
6/20/2018 8 AM EDT 794.16 740.77 43
6/20/2018 9 AM EDT 794.17 740.55 0
6/20/2018 10 AM EDT 794.18 740.56 0
6/20/2018 11 AM EDT 794.22 740.80 172
6/20/2018 12 PM EDT 794.20 740.76 0
6/20/2018 1 PM EDT 794.21 740.90 0
6/20/2018 2 PM EDT 794.19 740.93 0
6/20/2018 3 PM EDT 794.06 741.39 361
6/20/2018 4 PM EDT 794.04 741.28 6,008
6/20/2018 5 PM EDT 793.97 741.20 5,977
6/20/2018 6 PM EDT 793.96 741.08 6,031
6/20/2018 7 PM EDT 793.84 741.00 6,040
6/20/2018 8 PM EDT 793.94 740.32 178
6/20/2018 9 PM EDT 793.89 740.37 0
6/20/2018 10 PM EDT 793.91 740.62 0
6/20/2018 11 PM EDT 794.05 740.74 0
6/21/2018 12 AM EDT 794.11 740.81 0
6/21/2018 1 AM EDT 794.11 740.85 0
6/21/2018 2 AM EDT 794.10 740.88 0
6/21/2018 3 AM EDT 794.09 740.77 0
6/21/2018 4 AM EDT 794.12 740.61 0
6/21/2018 5 AM EDT 794.16 740.57 0
6/21/2018 6 AM EDT 794.18 740.72 0
6/21/2018 7 AM EDT 794.17 740.81 0
6/21/2018 8 AM EDT 794.17 740.81 0
6/21/2018 9 AM EDT 794.17 740.68 0
6/21/2018 10 AM EDT 794.18 740.60 0
6/21/2018 11 AM EDT 794.19 740.62 0
6/21/2018 12 PM EDT 794.18 740.70 0
6/21/2018 1 PM EDT 794.19 740.84 0
6/21/2018 2 PM EDT 794.23 740.84 0
6/21/2018 3 PM EDT 794.10 741.36 393
6/21/2018 4 PM EDT 794.10 741.29 6,019
6/21/2018 5 PM EDT 794.02 741.17 6,001
6/21/2018 6 PM EDT 794.02 740.97 6,025
6/21/2018 7 PM EDT 793.88 740.84 6,018
6/21/2018 8 PM EDT 793.99 740.21 190
6/21/2018 9 PM EDT 793.91 740.33 0
6/21/2018 10 PM EDT 793.90 740.61 0
6/21/2018 11 PM EDT 794.05 740.87 0
6/22/2018 12 AM EDT 794.16 740.87 0
6/22/2018 1 AM EDT 794.13 740.82 0

Elevations are in feet above sea level. Discharges are in cubic feet per second and are reported at the end of the hour.